Seattle, WA
on Saturday, November 10, 2012

Saturday
Previous Day Next Day
Daily Summary
 ActualAverageRecord
Temperature
Mean Temperature °F 47°F  
Max Temperature 46°F 52°F 63°F (1997)
Min Temperature 31°F 41°F 30°F (1948)
Degree Days
Heating Degree Days 26 18  
Month to date heating degree days 152 173  
Since 1 July heating degree days 645 770  
Cooling Degree Days 0 0  
Month to date cooling degree days 0 0  
Year to date cooling degree days 177 189  
Moisture
Dew Point 26°F   
Average Humidity 61    
Maximum Humidity 85    
Minimum Humidity 37    
Precipitation
Precipitation T in 0.22 in 1.08 in (1962)
Month to date precipitation 0.98 2.04  
Year to date precipitation 34.11 27.61  
Snow
Snow 0.00 in in T in (1986)
Month to date snowfall 0.0  
Since 1 July snowfall 0.0  
Snow Depth 0.00 in   
Wind
Wind Speed 5 mph   
Max Wind Speed 12 mph   
Max Gust Speed 15 mph   
Visibility 10 miles   
Events     

Key: T is trace of precipitation, MM is missing value
Source: NWS Daily Summary
Time(PST)TemperatureDew PointHumidity Pressure Visibility Wind DirectionWind SpeedGust SpeedPrecipitationEvents Conditions
12:53 AM 34.0°F 28.0°F 79% 29.98 in 10.0 miles ESE 5.8 mph - N/A   Clear
1:53 AM 33.1°F 28.0°F 82% 30.00 in 10.0 miles ESE 5.8 mph - N/A   Clear
2:53 AM 32.0°F 27.0°F 82% 30.01 in 10.0 miles ESE 3.5 mph - N/A   Clear
3:53 AM 32.0°F 28.0°F 85% 30.02 in 10.0 miles ESE 4.6 mph - N/A   Partly Cloudy
4:53 AM 32.0°F 27.0°F 82% 30.04 in 10.0 miles ESE 3.5 mph - N/A   Mostly Cloudy
5:53 AM 33.1°F 28.0°F 82% 30.06 in 10.0 miles ESE 3.5 mph - N/A   Mostly Cloudy
6:53 AM 32.0°F 27.0°F 82% 30.06 in 10.0 miles SE 3.5 mph - N/A   Mostly Cloudy
7:53 AM 34.0°F 28.0°F 79% 30.09 in 10.0 miles SE 4.6 mph - N/A   Mostly Cloudy
8:53 AM 37.0°F 30.0°F 76% 30.10 in 10.0 miles SSE 3.5 mph - N/A   Scattered Clouds
9:53 AM 41.0°F 28.9°F 62% 30.11 in 10.0 miles NNW 5.8 mph - N/A   Scattered Clouds
10:53 AM 42.1°F 28.9°F 60% 30.14 in 10.0 miles WNW 6.9 mph - N/A   Scattered Clouds
11:53 AM 44.1°F 28.0°F 53% 30.14 in 10.0 miles NNW 4.6 mph - N/A   Scattered Clouds
12:53 PM 45.0°F 25.0°F 46% 30.16 in 10.0 miles North 8.1 mph - N/A   Scattered Clouds
1:53 PM 46.0°F 23.0°F 40% 30.17 in 10.0 miles North 8.1 mph - N/A   Scattered Clouds
2:53 PM 46.0°F 21.9°F 39% 30.16 in 10.0 miles NNE 8.1 mph - N/A   Partly Cloudy
3:53 PM 44.1°F 21.9°F 42% 30.18 in 10.0 miles NNE 4.6 mph - N/A   Scattered Clouds
4:53 PM 39.9°F 21.0°F 47% 30.19 in 10.0 miles Calm Calm - N/A   Partly Cloudy
5:53 PM 39.9°F 25.0°F 55% 30.20 in 10.0 miles ENE 4.6 mph - N/A   Clear
6:53 PM 37.9°F 25.0°F 60% 30.22 in 10.0 miles Calm Calm - N/A   Clear
7:53 PM 37.4°F 24.8°F 60% 30.19 in 10.0 miles ESE 4.6 mph - N/A   Clear
8:53 PM 35.1°F 27.0°F 72% 30.22 in 10.0 miles SE 4.6 mph - N/A   Mostly Cloudy
9:53 PM 35.1°F 28.0°F 76% 30.23 in 10.0 miles SE 5.8 mph - N/A   Mostly Cloudy
10:53 PM 34.0°F 28.0°F 79% 30.24 in 10.0 miles SE 6.9 mph - N/A   Mostly Cloudy
11:53 PM 35.1°F 27.0°F 72% 30.25 in 10.0 miles ESE 6.9 mph - N/A   Mostly Cloudy
Moon Phase
Nov. 10 Nov. 13 Nov. 20 Nov. 28 Dec. 06
Sunrise:07:07 AM (PST) Moon Rise:03:05 AM (PST)11/10
Sunset:04:38 PM (PST) Moon Set:02:39 PM (PST)11/10

Copyright © 2014 The Weather Underground, Inc.